Theta_e
298 297 297 298 296 296 296 296 296 295 296 297 296 298 299 299 291 289 298 301 299 299 301 301 301 301 301 301 302 302 303 303 303 303 303 304 304 305 305 306 306 306 306 306 307 308 308 308 308 309 309 309 310 311 311 311 312 313 314 314 313 313 313 313 313 314 314 314 314 313 313 312 312 311 311 311 311 311 311 311 311 311 311 310 312 313 316
296 297 298 297 296 296 296 295 297 297 297 297 298 299 302 302 300 302 302 301 299 300 299 301 302 303 302 302 303 303 302 302 303 303 303 303 304 304 304 304 305 305 305 306 306 306 307 306 306 307 307 307 308 309 310 311 311 313 313 313 312 312 312 312 312 313 313 313 312 312 312 311 311 311 310 310 310 310 309 310 309 309 308 308 308 308 310
295 298 300 298 297 296 294 296 297 297 297 299 301 302 303 304 302 302 300 297 294 299 301 299 301 301 301 301 300 301 302 302 303 302 302 303 303 303 303 303 303 304 305 305 305 305 305 306 306 306 307 307 308 309 309 310 310 311 312 311 311 311 310 311 312 312 312 311 311 311 311 311 311 310 309 310 309 308 308 308 307 307 306 305 305 305 306
291 298 298 298 299 297 297 296 299 301 300 299 302 299 304 302 299 299 297 293 290 295 298 298 298 299 299 298 299 300 301 302 302 302 302 302 302 301 301 302 302 303 303 303 304 304 305 305 306 306 306 306 307 307 308 308 310 311 311 310 310 309 309 310 310 310 310 310 310 310 310 309 309 309 309 308 308 307 307 306 306 306 305 304 304 303 304
289 296 298 298 298 296 292 294 297 300 302 303 304 305 306 304 302 295 292 293 295 295 297 295 296 297 298 298 298 299 300 301 301 301 301 301 301 301 301 301 302 302 302 303 304 305 305 305 305 306 306 306 305 306 307 308 309 310 310 309 308 308 308 308 309 310 309 309 309 309 309 309 309 309 308 307 306 306 305 306 305 304 304 303 303 303 302
290 296 296 296 291 285 287 299 302 302 299 300 297 296 298 300 301 298 300 295 296 296 296 295 294 295 295 297 299 301 300 300 300 300 300 300 300 301 301 302 302 303 303 304 304 306 308 307 306 307 306 305 307 308 307 307 308 309 308 308 307 307 307 307 308 308 308 308 308 308 308 308 308 307 306 306 306 306 306 305 304 303 303 302 302 302 301
289 291 294 288 284 285 294 301 303 305 303 301 297 297 297 296 296 296 294 295 295 296 296 296 295 295 296 297 297 299 300 301 299 299 299 299 299 300 301 301 302 303 303 305 306 305 305 306 307 307 306 307 311 308 311 306 307 307 307 307 306 306 306 306 307 307 307 307 307 307 307 307 307 306 306 306 305 305 305 304 303 302 302 301 301 301 301
292 289 287 282 284 293 298 301 303 304 302 300 297 294 296 297 297 296 294 295 296 295 294 294 294 294 294 295 296 297 298 300 299 299 298 299 299 300 301 301 302 303 304 304 304 305 306 305 305 305 306 307 306 305 306 307 306 306 306 305 305 305 305 305 305 306 306 306 306 306 306 306 306 305 306 305 305 305 304 304 303 303 302 302 300 300 300
287 288 287 286 293 293 295 297 299 300 295 297 295 287 292 298 298 297 295 293 293 292 292 293 293 293 293 291 292 297 298 298 299 299 299 300 301 302 303 304 304 304 304 304 305 305 305 305 305 305 305 306 305 304 304 304 304 305 305 304 304 305 304 305 305 305 305 304 305 305 305 305 304 305 305 305 305 305 304 303 302 302 302 301 301 300 299
292 287 285 285 286 284 289 298 302 305 306 304 301 294 290 298 298 297 293 291 291 291 292 292 292 294 290 286 288 294 297 298 299 300 301 302 302 302 303 304 304 304 304 304 305 305 304 304 305 305 305 305 305 304 304 304 303 303 304 303 304 304 304 304 304 304 304 304 303 303 304 304 304 304 304 305 304 306 304 302 302 302 302 301 301 300 299
291 288 286 285 284 287 295 298 302 305 306 303 302 295 287 294 296 296 294 292 292 292 291 292 293 294 288 285 288 293 296 297 299 298 299 300 301 302 303 302 302 303 304 304 304 304 304 303 304 305 305 304 304 303 303 303 303 302 302 303 304 304 304 304 304 304 304 303 303 302 301 301 302 302 303 303 304 305 304 303 302 302 302 301 301 301 300
291 289 287 285 288 286 296 300 303 304 306 306 301 288 287 294 296 296 295 293 293 293 293 294 294 294 287 286 290 295 296 297 298 299 299 299 301 301 302 303 303 303 304 303 303 302 302 303 304 304 304 303 303 302 302 303 302 302 302 303 303 304 304 304 304 303 303 303 303 302 301 301 301 302 302 303 303 303 303 302 302 302 301 301 300 300 300
290 288 287 289 289 295 301 301 304 304 307 302 290 285 291 296 297 297 296 295 295 295 294 295 293 295 295 293 295 297 297 297 298 299 301 301 301 301 301 301 302 302 302 302 301 301 302 302 303 303 303 303 302 302 302 301 301 302 303 304 304 303 303 303 303 302 302 303 303 303 303 302 301 301 302 302 302 302 301 302 302 301 301 300 300 299 299
289 290 288 288 290 297 302 303 304 306 300 289 289 295 300 298 296 297 297 296 296 296 296 294 293 293 295 296 296 296 297 297 298 299 299 300 301 301 302 302 302 302 302 302 302 302 302 302 302 302 302 302 301 301 301 301 302 303 303 303 303 303 302 302 302 302 302 302 303 303 303 302 300 299 300 301 301 301 300 300 300 299 299 299 299 298 298
292 290 287 286 283 292 303 303 301 303 293 292 297 298 298 300 298 298 298 298 297 297 294 295 294 294 295 295 295 296 297 297 297 298 298 299 299 299 300 301 301 301 301 301 301 301 302 302 302 302 302 301 301 301 300 302 303 303 303 303 303 303 303 302 302 302 302 301 302 302 302 302 299 298 298 298 299 299 299 299 298 298 298 298 298 297 297
288 288 285 285 292 298 304 302 293 300 301 301 301 299 297 299 299 298 298 297 297 297 295 294 294 295 295 295 296 296 297 297 298 299 299 300 299 300 301 301 301 301 300 300 301 301 301 302 302 302 302 300 301 300 300 303 303 303 303 303 303 303 302 302 302 302 302 302 302 301 301 301 300 298 297 298 297 297 297 297 296 296 296 297 297 296 296
290 289 291 297 301 301 303 303 302 302 303 303 303 301 300 299 299 300 297 296 297 297 296 295 295 295 295 295 296 296 296 297 298 298 299 298 299 299 299 300 301 301 300 300 300 300 301 301 302 301 301 301 300 300 302 303 302 302 302 302 302 302 301 302 302 301 302 302 302 301 301 301 299 298 297 297 296 296 296 295 295 294 294 295 295 295 295
298 299 299 300 300 301 301 303 304 303 303 303 303 302 299 300 300 299 297 297 297 297 297 295 295 295 296 296 296 297 297 297 298 298 298 299 300 300 299 300 300 300 300 300 300 299 300 301 301 302 301 301 300 301 302 302 302 302 302 302 302 301 301 301 301 301 301 301 301 301 301 300 300 299 297 296 295 295 295 295 294 294 293 293 294 295 294
293 287 299 298 298 300 301 301 303 303 302 302 302 301 300 300 300 299 299 299 298 298 298 297 296 296 296 296 296 297 297 297 297 298 298 298 299 299 299 300 300 300 299 299 298 299 299 300 300 300 300 301 302 302 302 302 302 302 301 302 301 301 301 301 302 301 301 301 300 300 300 299 299 299 298 296 295 294 294 294 294 293 293 292 293 294 293
291 290 296 299 300 301 302 301 300 300 301 301 301 301 301 300 301 300 299 299 298 298 297 297 296 296 297 296 296 296 296 297 297 297 298 298 299 300 300 300 300 299 299 298 298 298 298 300 300 300 300 299 300 301 301 302 301 302 301 300 300 300 300 301 300 300 301 295 298 300 299 298 297 298 298 297 294 293 293 293 292 292 292 292 292 293 293
294 297 297 298 299 299 300 301 301 301 301 300 300 300 300 299 298 298 298 299 298 298 297 297 296 296 296 297 297 297 297 297 298 298 298 299 299 300 299 300 300 299 299 298 298 298 299 300 300 300 300 301 300 301 301 301 302 301 301 300 301 299 299 300 301 301 300 300 300 300 298 297 296 295 295 297 296 294 293 292 291 292 293 293 293 294 294
289 290 294 297 291 290 296 298 300 300 301 300 299 299 298 298 297 297 296 297 298 298 298 298 297 296 296 297 298 297 297 297 298 298 298 299 299 299 299 299 299 299 300 299 299 298 299 300 300 300 300 300 301 300 300 300 300 300 300 300 300 299 299 298 299 300 300 299 300 299 300 298 296 295 289 289 292 295 293 291 289 288 288 291 293 295 294
290 296 298 300 299 298 298 298 299 300 301 300 298 298 297 298 298 298 297 296 296 297 298 299 298 297 297 297 298 297 297 297 298 299 298 298 298 298 299 299 299 299 299 300 299 298 299 300 299 300 300 300 301 301 301 301 300 299 299 298 298 298 298 298 297 300 299 298 299 299 299 299 299 296 296 294 289 288 289 290 289 288 288 288 289 289 293
299 300 300 301 299 296 298 300 300 300 301 300 298 299 299 299 298 298 298 297 296 296 297 298 299 298 298 298 298 297 298 298 298 298 299 298 298 298 298 297 297 298 298 299 298 299 300 300 299 300 300 300 301 300 301 301 301 301 299 298 297 298 298 299 299 298 298 298 299 299 298 298 298 298 298 296 293 290 289 289 289 289 289 289 289 289 289
298 302 302 302 300 300 300 301 301 301 301 301 299 298 299 299 299 299 298 298 299 298 297 298 299 299 299 298 298 298 297 298 298 298 298 298 297 297 297 297 297 298 298 299 299 300 300 300 299 299 299 299 300 300 301 301 301 300 300 300 299 299 299 299 298 297 297 297 298 298 298 297 298 297 296 296 295 295 292 288 288 288 289 289 289 289 289
303 301 301 301 301 300 300 300 299 300 300 300 299 300 300 300 300 300 299 299 299 299 299 298 298 299 299 298 298 298 298 297 297 297 297 297 297 297 298 298 299 299 299 300 300 300 299 298 299 298 298 299 300 301 301 301 301 301 301 300 299 299 300 300 299 299 298 298 298 298 298 297 298 297 297 297 296 295 294 294 295 291 289 288 288 289 289
301 301 300 298 297 298 299 297 296 299 300 300 300 299 300 300 300 300 300 300 300 300 299 299 299 299 299 299 298 298 297 297 298 297 297 297 297 298 298 299 298 298 298 297 297 296 296 298 298 298 298 299 300 301 300 301 301 300 300 301 300 295 291 297 299 299 298 298 298 298 298 298 297 296 298 296 296 296 294 293 293 294 294 297 292 289 293
300 301 300 296 294 296 298 299 300 300 300 299 299 299 299 300 299 299 298 298 298 299 299 299 299 298 298 298 298 297 297 297 296 297 297 297 298 298 298 298 297 297 297 297 297 298 298 298 298 298 299 300 300 301 300 300 301 301 300 300 299 297 298 299 300 301 299 298 298 298 298 298 298 297 296 296 295 295 294 295 294 294 294 295 295 293 291
300 300 301 300 300 300 300 300 300 299 299 299 300 299 299 298 297 297 297 297 298 298 298 298 299 299 298 297 297 296 297 297 296 296 297 297 298 298 298 299 298 299 298 297 298 298 298 298 297 297 298 301 301 301 301 301 302 301 300 299 298 297 299 299 299 299 303 301 299 299 294 296 297 297 296 296 296 296 295 295 294 295 295 295 295 295 293
300 300 300 299 300 300 299 297 297 298 298 298 298 298 298 298 296 296 297 297 298 297 297 298 297 297 298 297 297 297 297 296 296 296 297 297 298 298 298 298 298 298 298 297 297 298 297 297 297 297 299 301 301 301 300 302 304 301 301 300 298 297 298 299 298 301 301 298 297 293 295 297 297 297 297 297 296 295 294 294 293 292 294 294 293 293 292
299 300 300 299 299 299 297 297 297 297 298 298 298 297 297 298 297 296 296 297 297 297 297 297 297 297 297 297 298 299 298 297 296 296 297 297 298 299 298 298 297 295 296 297 298 298 298 298 298 298 300 300 301 301 302 302 300 301 300 299 299 293 291 290 293 299 298 298 296 299 297 296 297 296 293 294 296 295 295 295 293 292 293 294 294 293 293
298 298 298 297 297 297 297 297 297 297 297 298 297 296 297 296 296 296 296 296 297 297 297 297 296 297 298 298 299 298 297 296 296 296 297 299 298 298 295 300 299 296 298 298 298 298 299 298 297 299 300 301 301 301 302 301 302 301 301 295 299 299 295 291 296 297 299 297 297 297 296 296 296 296 295 295 295 295 294 294 293 293 293 293 293 293 294
296 294 294 295 295 296 295 296 296 296 297 296 297 298 298 297 297 296 296 297 297 297 297 296 297 298 298 297 296 295 295 295 296 297 297 296 293 292 293 300 299 299 299 299 299 300 300 299 299 300 300 300 301 301 302 304 301 300 299 299 299 299 294 294 294 297 297 298 297 297 297 296 297 296 296 295 296 294 296 294 292 293 293 294 294 296 295
296 295 295 297 297 295 295 295 297 297 297 298 298 297 297 297 297 297 297 297 297 297 297 297 298 297 296 297 293 291 291 292 292 290 288 289 289 290 297 299 299 299 300 300 300 299 300 300 301 301 300 299 299 300 301 302 302 301 301 300 298 298 298 297 299 298 296 295 295 297 296 297 297 298 294 294 296 296 294 293 292 292 293 294 296 295 293
299 299 299 299 299 298 298 298 297 297 297 296 297 297 297 297 297 297 298 297 297 298 298 297 296 296 294 293 290 290 288 288 288 287 287 288 290 290 297 299 299 299 299 299 299 299 300 300 300 300 300 299 299 299 300 301 301 301 301 301 301 297 298 297 297 297 296 296 295 297 296 297 298 294 295 298 298 297 296 294 293 293 293 294 295 296 296
299 298 298 298 299 299 299 299 298 299 298 297 297 297 297 297 298 297 297 297 298 298 297 296 295 295 294 290 289 287 287 287 286 287 287 288 288 292 296 298 298 298 297 298 299 300 299 298 290 286 298 302 299 299 298 298 299 300 301 300 297 298 297 298 296 297 296 296 296 297 299 296 295 295 294 297 296 296 295 296 293 294 294 294 293 294 296
300 299 299 299 300 299 299 299 298 297 297 297 297 296 297 297 297 297 298 298 297 297 297 296 295 294 293 293 291 288 287 288 289 288 289 289 292 294 296 298 298 297 298 296 298 300 299 299 292 288 295 301 298 299 301 289 298 297 299 300 299 297 296 297 298 296 297 297 296 296 294 293 295 296 294 296 296 297 295 295 293 295 296 294 293 294 293
300 300 299 299 298 298 298 298 298 298 297 297 297 297 297 297 297 297 297 297 297 297 297 296 295 295 294 294 292 290 290 289 288 289 289 290 294 296 297 295 297 298 296 297 300 301 299 296 288 293 298 299 299 299 296 289 288 296 299 298 298 297 296 296 296 295 296 298 293 295 296 296 294 295 294 295 295 294 294 297 296 295 296 295 295 293 293
298 299 299 298 298 298 298 298 298 298 297 296 296 296 297 298 298 298 297 297 298 297 296 295 295 294 293 293 292 293 292 293 292 290 290 293 295 296 296 299 299 300 300 302 302 299 299 297 299 299 300 300 300 300 297 293 290 297 299 303 304 299 297 296 296 296 296 300 299 299 297 300 297 296 294 294 295 295 292 293 294 295 298 297 296 297 296
297 298 298 298 298 298 297 297 297 297 298 298 297 296 297 297 298 297 297 296 296 295 294 294 294 293 293 293 293 293 293 294 294 294 294 295 295 296 297 298 300 301 300 296 301 299 296 291 297 300 300 301 300 298 297 296 294 296 299 298 298 299 297 297 296 297 298 297 296 292 294 293 296 294 293 294 294 294 294 293 294 295 294 295 297 298 296
298 298 298 298 298 298 298 298 297 298 298 298 297 297 298 298 298 297 296 295 295 296 295 294 294 293 294 294 294 294 294 295 295 295 296 295 295 295 294 294 300 302 300 300 300 297 295 296 299 299 300 302 300 295 298 296 299 298 300 303 298 298 297 297 296 297 299 299 294 296 296 297 294 296 293 295 292 294 294 293 293 294 294 294 294 296 295
298 298 298 298 298 298 298 299 299 298 298 298 298 299 299 299 298 297 296 296 296 296 295 295 292 295 295 295 295 295 295 295 295 296 296 295 295 295 292 296 302 301 293 292 293 295 297 298 298 295 300 299 295 289 289 297 297 298 299 298 297 299 299 300 296 295 299 298 298 296 294 297 296 296 293 296 293 293 293 292 294 294 297 294 294 294 294
298 298 298 298 298 298 298 298 298 298 298 298 299 299 299 299 298 297 296 296 296 297 296 296 297 295 296 296 295 295 295 296 296 296 296 297 298 299 298 301 303 300 290 297 300 299 299 300 298 299 295 295 296 287 287 298 297 297 298 299 297 297 297 296 296 295 297 297 297 296 296 295 296 295 293 294 293 293 292 293 293 293 293 294 294 294 294
298 298 298 297 298 298 298 298 298 298 298 298 299 300 300 299 299 297 296 296 296 297 297 296 296 296 296 297 296 296 296 296 296 297 296 297 298 301 302 302 301 296 290 297 299 299 299 299 299 295 287 288 286 288 301 298 297 297 300 298 297 296 297 298 297 296 297 297 298 297 298 294 296 295 294 295 292 294 295 293 293 294 294 294 295 294 294
298 298 298 298 298 298 298 298 298 298 299 299 299 299 300 299 299 299 298 296 297 297 297 297 297 297 297 298 298 298 298 299 298 298 297 296 296 297 300 295 298 297 295 294 299 299 300 300 293 288 288 287 287 289 299 297 297 297 298 297 299 298 297 296 296 296 296 298 298 297 297 295 297 294 296 294 292 293 293 293 293 294 294 292 293 293 293
299 299 299 294 299 298 299 299 300 300 299 298 298 298 299 300 300 299 299 298 298 298 299 299 298 298 299 299 300 300 300 300 300 300 300 299 297 299 301 296 298 294 293 292 298 300 297 288 287 287 287 286 288 295 297 296 296 297 299 298 298 298 300 298 297 297 297 296 296 298 298 298 297 295 298 296 296 295 293 292 292 294 294 293 293 294 295
299 299 299 299 299 300 300 300 300 300 298 298 297 297 299 300 300 300 299 299 299 299 299 300 299 299 300 301 300 299 298 298 299 300 301 301 298 297 294 293 291 290 292 297 301 299 293 290 288 287 287 287 290 299 298 297 297 297 298 298 299 300 297 296 297 297 296 296 295 293 292 295 295 295 297 294 295 295 294 294 293 294 295 292 293 292 291
298 298 298 298 298 299 300 300 299 298 298 298 299 298 299 300 300 301 301 300 299 299 299 300 300 300 300 301 301 301 300 300 297 298 301 302 302 300 299 299 295 290 292 290 290 289 288 288 286 286 286 287 293 298 298 297 297 298 298 298 298 299 298 297 297 296 296 298 297 296 296 297 297 295 296 296 297 295 296 292 292 292 293 293 292 295 294
299 299 299 299 299 299 299 299 298 297 298 299 298 299 300 300 300 300 301 301 300 299 299 299 300 301 300 299 300 301 301 301 300 298 302 301 302 301 301 293 289 289 294 298 300 295 288 286 286 286 286 289 297 297 297 297 297 296 297 298 297 298 298 298 298 296 296 296 295 294 294 295 297 297 296 293 292 294 292 294 293 292 291 291 291 291 292
299 299 298 298 298 298 299 298 297 298 299 299 299 300 300 300 298 299 299 299 300 298 299 299 300 300 301 301 301 301 302 301 301 302 302 302 303 303 299 297 296 292 293 298 300 297 288 286 287 286 289 295 297 297 297 298 298 297 298 297 297 301 296 295 292 292 295 298 297 293 292 292 293 293 292 292 293 295 293 291 292 291 288 290 291 291 292
299 298 298 298 299 300 300 300 299 299 299 300 300 300 299 298 298 298 299 299 300 298 298 299 299 300 300 300 301 301 301 301 300 298 301 302 303 298 295 297 296 293 297 297 299 298 294 294 294 291 292 296 297 297 297 297 297 297 296 297 298 297 295 294 294 295 295 294 294 295 294 295 295 296 294 293 293 293 293 291 291 291 291 291 292 292 292
300 300 300 300 300 300 300 300 300 300 300 300 300 299 299 299 298 298 299 293 298 298 298 298 298 299 300 300 299 300 301 301 300 301 297 298 302 302 296 293 297 296 298 298 298 300 297 295 292 289 291 296 297 297 293 292 295 296 297 295 295 296 294 294 293 293 295 296 297 296 295 293 293 292 292 296 293 292 291 292 292 291 291 292 292 291 292
Wind_Speed
8 10 16 19 21 21 17 17 16 17 17 16 9 5 4 4 2 7 11 17 21 14 14 16 16 16 15 16 15 13 14 13 13 13 13 12 12 11 11 10 9 9 9 9 8 9 9 9 9 8 8 9 8 9 9 9 9 9 8 9 11 10 10 11 10 10 10 10 10 11 12 12 12 13 13 12 13 13 12 13 11 13 13 13 14 14 14
8 10 15 17 18 17 17 17 11 14 14 15 7 1 12 16 14 20 18 17 18 12 12 12 11 11 13 13 14 13 14 14 14 14 13 13 12 11 11 10 9 9 9 8 8 9 9 10 11 10 9 10 10 9 9 10 9 9 6 7 10 11 12 11 11 12 11 11 11 11 12 12 13 13 13 13 13 13 14 13 13 13 14 14 13 14 14
3 11 18 19 18 17 17 19 15 8 10 16 24 18 19 23 19 21 22 20 13 7 10 12 12 12 12 13 15 15 14 15 14 14 13 13 12 11 10 9 10 9 8 8 9 10 10 10 10 10 9 10 9 9 9 10 9 7 9 13 11 12 13 12 12 12 11 12 12 13 12 12 12 13 14 12 13 14 14 14 14 14 13 15 15 14 14
5 8 4 8 6 13 6 10 17 16 10 11 10 12 10 16 18 21 20 14 12 11 14 13 12 14 15 15 14 12 10 13 14 14 13 13 12 10 10 10 9 9 9 9 10 10 11 10 10 10 9 10 9 9 10 10 8 8 11 11 11 12 12 12 13 13 12 13 13 13 13 14 14 13 13 14 14 13 13 14 13 13 15 14 13 13 12
6 4 13 10 8 13 10 8 9 9 17 15 15 14 12 16 22 16 10 9 11 14 14 16 14 12 12 11 10 10 11 12 13 13 13 12 11 10 9 10 9 9 9 9 9 9 9 9 10 10 9 9 10 10 10 9 8 8 11 11 12 13 12 13 12 11 12 13 13 13 13 14 12 13 14 14 14 13 14 13 12 13 14 14 13 13 13
4 9 9 7 4 8 4 1 8 7 11 11 13 11 12 9 5 5 9 17 16 16 15 17 15 11 10 9 8 7 7 10 12 12 12 11 10 10 9 9 9 9 8 7 6 5 6 9 9 5 5 8 8 8 7 9 9 11 12 12 13 12 12 12 12 13 13 13 13 13 13 13 13 14 14 14 12 10 10 11 12 12 13 14 13 13 13
4 5 8 3 3 2 3 5 3 12 15 16 18 16 15 14 17 22 22 20 18 14 13 16 15 12 11 10 9 8 7 9 10 11 11 10 10 10 9 10 9 7 6 5 7 11 12 11 10 10 11 9 2 6 2 9 8 11 11 13 12 11 11 13 13 13 12 13 13 12 13 12 11 12 12 11 12 11 10 12 12 12 12 13 12 13 13
5 3 2 8 3 2 2 7 14 16 19 13 15 15 14 13 12 18 20 19 18 18 18 17 16 15 14 12 10 8 7 7 9 10 9 9 9 8 8 9 5 5 7 10 10 10 10 10 10 11 13 13 15 12 11 12 13 12 12 12 12 11 11 11 12 13 13 12 11 11 12 12 12 12 11 11 10 9 9 9 9 9 9 10 12 13 14
4 2 2 2 4 6 4 6 9 7 7 5 5 8 8 8 10 13 19 21 19 19 17 18 18 16 14 13 8 6 5 6 8 9 9 9 9 7 7 7 9 11 10 10 10 9 9 9 9 9 9 9 10 11 12 10 10 11 11 10 10 10 11 11 11 12 13 13 12 11 11 11 11 10 11 11 9 8 9 10 10 11 10 10 10 12 15
5 5 6 2 1 2 5 4 5 3 7 10 13 11 6 6 11 13 15 17 18 19 17 17 18 14 13 9 6 4 6 6 7 8 7 8 9 7 7 8 8 9 10 9 9 8 8 9 8 8 9 9 9 10 10 10 10 11 11 11 11 10 10 10 11 11 12 13 12 12 12 13 12 10 9 9 9 8 9 10 11 11 10 10 10 10 12
8 6 5 4 4 2 2 8 9 6 7 12 12 7 4 7 12 12 14 16 16 17 17 17 14 9 7 7 8 8 8 8 8 9 7 8 8 8 8 8 9 8 8 9 9 8 8 9 8 8 9 9 9 9 10 10 10 10 11 10 9 9 9 9 10 10 10 11 11 12 13 13 12 13 11 9 8 8 8 8 9 9 9 10 10 10 11
3 3 4 4 3 2 4 10 8 8 3 4 3 5 6 13 13 14 15 16 16 15 15 13 7 5 9 11 10 12 12 11 10 9 9 8 9 9 9 8 8 9 8 9 9 9 9 8 8 9 9 9 9 9 10 10 11 11 10 9 9 7 7 7 7 9 9 10 9 9 9 8 10 10 9 10 10 9 8 8 8 9 9 9 10 11 11
6 7 4 5 3 3 5 7 7 6 4 3 5 3 6 15 15 14 14 15 15 14 12 7 3 6 8 14 16 14 13 13 11 9 8 9 10 10 9 8 7 8 8 8 9 9 9 9 9 9 8 8 9 9 9 10 10 10 10 9 9 8 8 9 11 13 11 10 10 11 11 12 13 12 11 10 10 10 9 9 9 9 10 9 10 10 10
4 5 7 5 4 2 3 5 5 4 4 4 2 4 12 17 17 15 15 16 15 13 8 8 11 14 18 18 16 15 14 13 12 11 11 11 10 10 9 7 8 8 8 7 8 10 10 9 9 7 7 8 10 10 9 10 10 9 10 10 9 10 10 10 10 11 11 11 9 9 10 12 13 12 12 12 12 12 10 11 12 11 10 9 8 9 9
4 3 5 4 4 2 4 4 4 1 2 3 9 13 14 14 16 17 15 13 12 11 14 15 17 19 19 17 16 15 15 14 13 11 10 10 11 10 10 10 10 8 8 8 10 9 8 9 9 7 6 9 9 8 9 8 7 8 8 8 9 9 9 9 8 9 9 11 9 9 9 11 12 12 11 11 11 11 11 11 12 12 12 11 10 10 9
3 5 3 2 3 7 1 2 2 6 8 11 12 13 16 14 14 15 14 12 13 15 18 18 16 18 19 17 17 16 14 13 12 12 11 11 10 10 10 10 9 9 10 9 8 9 9 8 7 6 8 9 8 9 10 7 6 7 8 8 7 8 7 8 8 9 9 10 10 9 9 8 9 10 11 10 10 10 10 10 10 11 10 10 10 11 11
3 4 5 7 7 7 7 10 12 13 14 13 13 13 14 15 13 12 11 14 15 16 18 18 19 17 16 17 16 15 14 13 13 13 12 11 9 10 9 9 9 9 9 10 10 10 8 6 5 8 8 9 8 8 7 8 9 8 8 7 6 6 7 8 7 9 7 8 10 10 9 9 9 9 10 10 10 10 10 10 10 10 9 9 9 9 10
13 11 8 8 9 10 11 11 12 13 13 13 14 16 14 12 13 11 13 15 17 17 17 18 16 17 18 17 16 15 15 14 13 11 12 11 9 9 9 10 10 9 9 9 10 9 6 7 10 6 7 7 7 5 7 8 8 8 7 7 7 8 8 7 8 9 9 8 9 9 9 9 8 8 8 9 8 9 9 9 9 9 9 9 8 9 9
6 6 5 11 11 11 13 13 14 13 12 12 12 13 14 14 14 15 15 16 16 17 15 16 18 19 17 17 16 15 14 14 13 12 12 10 9 10 11 11 10 9 8 9 9 7 8 8 7 8 8 6 4 7 9 8 8 7 6 5 6 5 6 6 5 6 6 5 6 6 7 7 8 7 7 7 8 8 8 9 10 9 10 9 9 8 8
7 9 11 10 11 12 12 11 12 14 14 14 12 12 13 15 16 16 17 16 17 15 16 17 18 18 17 17 16 15 14 13 12 12 11 11 11 10 10 11 10 8 8 10 8 7 8 7 7 8 9 8 8 9 8 7 6 5 5 5 6 6 6 5 5 6 5 6 6 5 6 6 6 6 6 6 7 7 7 7 7 9 9 9 9 8 8
12 13 12 12 13 13 12 12 11 11 11 14 15 16 18 18 19 19 17 13 14 15 17 18 17 18 16 16 16 16 14 13 12 12 12 11 11 10 10 9 8 8 9 9 8 9 9 8 7 8 8 7 9 9 8 8 7 5 4 4 6 7 6 4 4 4 5 6 5 5 5 6 5 4 4 4 5 5 6 4 5 5 6 7 8 7 6
8 8 12 14 10 8 9 12 13 14 15 16 18 18 19 19 19 19 19 16 13 16 17 16 15 17 16 16 16 15 14 13 13 13 12 11 11 10 9 9 9 9 8 7 7 8 7 7 8 8 7 6 7 7 7 7 8 10 9 5 6 5 5 6 5 5 5 5 6 6 4 5 4 5 6 8 6 4 3 4 7 8 7 5 6 7 6
9 14 15 8 11 13 11 14 14 15 15 16 18 18 18 18 17 18 20 20 18 16 15 14 15 16 16 16 15 15 13 13 12 12 12 12 11 10 10 10 10 11 9 9 11 9 6 6 7 8 7 6 5 6 8 8 9 8 9 7 6 6 6 6 5 3 5 5 6 5 4 4 4 5 3 4 7 7 5 3 4 4 5 7 9 9 8
16 17 12 13 13 14 15 14 15 15 14 15 17 17 17 17 17 17 17 17 19 18 16 15 14 16 16 15 15 15 15 14 13 12 12 12 11 10 11 9 7 8 10 10 9 9 6 6 7 7 6 6 8 7 6 6 7 8 7 6 5 5 5 5 5 8 8 7 6 4 5 5 6 5 3 2 2 1 2 3 5 5 4 5 7 6 8
14 14 14 15 16 16 14 14 13 13 13 14 15 17 17 17 17 17 18 17 16 17 17 16 15 14 15 15 14 14 14 13 13 13 11 10 11 11 10 10 8 8 8 8 6 6 6 6 5 5 5 8 11 8 6 3 7 6 6 4 5 5 5 5 5 6 6 6 5 6 6 6 6 6 6 7 6 2 4 5 5 6 7 6 7 5 4
15 13 15 17 17 15 12 14 15 14 15 15 15 15 16 16 18 18 17 17 15 15 16 16 16 15 14 15 14 13 14 14 11 11 12 12 10 9 8 9 9 7 7 6 6 6 6 6 5 5 6 6 6 8 6 9 6 5 6 5 6 4 3 3 4 5 6 5 6 6 5 6 5 6 6 6 5 6 6 2 1 4 7 8 7 7 2
16 16 19 18 17 15 14 14 14 16 16 16 17 18 19 17 17 16 16 15 16 15 15 16 15 15 13 12 13 13 13 12 10 10 10 10 8 9 8 7 8 8 8 7 7 4 3 5 6 5 4 4 3 4 7 6 8 8 10 6 2 1 3 4 4 4 5 5 5 5 4 5 6 6 5 5 5 5 6 7 8 7 7 2 5 5 3
14 14 13 15 16 16 16 17 18 17 17 17 18 19 19 17 16 17 17 17 16 15 15 15 15 14 13 12 12 13 12 11 11 11 10 9 9 8 8 9 9 8 7 5 5 4 6 6 6 5 5 3 4 3 4 3 7 5 5 4 5 5 6 8 7 3 4 5 4 4 4 5 6 6 4 4 5 5 5 7 7 6 4 5 7 8 4
12 11 11 14 16 17 18 16 17 18 18 17 17 17 17 18 18 17 17 16 16 16 14 15 14 13 13 12 11 13 12 11 11 11 10 9 8 8 7 7 7 6 6 6 6 6 6 6 6 5 4 4 5 3 2 5 4 5 5 6 5 5 3 4 4 6 2 2 5 3 4 3 5 5 5 5 4 4 5 6 5 3 5 5 5 6 9
11 12 14 16 17 19 20 19 18 18 18 18 17 16 17 17 17 15 16 16 15 14 14 13 12 13 13 13 12 11 10 12 10 10 10 9 8 7 7 7 7 7 6 7 6 6 6 6 5 5 4 4 3 2 3 3 1 8 9 7 5 4 2 3 5 5 3 6 7 5 5 5 6 5 5 5 4 5 4 5 5 4 5 6 5 6 8
15 16 17 17 19 18 19 19 18 17 17 17 17 17 17 16 16 16 16 15 14 14 15 15 14 13 12 11 10 12 11 10 10 10 10 9 8 6 7 8 6 6 6 6 6 6 6 6 5 5 4 4 4 3 5 6 6 7 5 6 4 6 5 5 4 5 4 4 4 2 3 4 3 4 5 4 3 4 5 4 4 4 4 4 5 5 5
18 19 21 18 17 19 18 16 16 16 15 16 16 17 17 16 16 17 16 15 15 15 14 14 13 12 10 9 11 11 11 10 10 10 9 7 7 5 4 5 9 7 7 6 5 5 5 5 6 5 4 5 4 4 4 6 4 3 1 7 6 3 3 2 2 3 4 1 4 3 2 5 5 4 4 3 4 4 3 2 3 4 4 3 4 3 3
18 20 18 18 18 18 18 16 16 16 16 17 15 15 14 14 15 14 12 11 14 12 13 13 12 11 10 10 11 10 9 9 10 9 8 7 3 2 3 4 6 7 6 5 5 5 4 5 5 4 5 5 5 4 5 3 5 4 4 3 5 3 3 4 1 3 1 2 3 3 5 4 3 5 4 4 2 3 2 2 2 3 4 3 3 2 1
17 15 17 17 16 17 18 16 13 14 15 14 12 12 13 13 12 12 15 13 13 13 12 12 11 12 9 8 6 6 6 5 5 5 6 4 1 2 3 5 6 6 4 4 5 5 3 4 3 4 5 6 5 4 5 5 4 2 5 3 4 4 4 3 1 2 6 5 4 6 5 4 5 1 2 4 2 2 2 2 2 3 3 3 2 2 1
13 15 15 14 13 13 14 13 15 15 14 14 14 13 13 13 13 14 12 13 13 12 11 12 11 10 11 8 6 5 7 7 7 7 5 4 1 0 4 4 6 6 5 5 5 4 4 4 4 5 4 5 5 4 4 5 6 5 3 4 3 3 3 2 2 3 3 4 4 4 4 3 2 2 3 2 2 3 1 2 5 4 3 3 4 2 2
15 13 11 12 14 16 16 17 15 12 14 13 13 14 13 13 14 14 12 12 11 12 12 12 12 11 10 7 6 8 8 7 6 5 5 3 1 0 4 5 9 7 5 5 6 5 5 4 3 3 4 1 4 4 5 4 6 6 3 3 3 2 2 2 3 3 3 4 3 3 1 2 4 3 3 3 3 4 5 4 4 3 3 4 5 4 2
16 15 13 12 11 14 13 8 13 12 10 12 10 11 13 13 14 13 12 12 12 12 12 12 12 12 10 8 6 6 6 6 5 4 3 1 1 3 4 7 6 7 7 6 6 5 6 4 3 1 3 0 5 4 4 5 4 4 7 2 2 2 3 3 3 3 3 3 3 3 3 5 4 4 5 5 3 2 3 3 4 4 2 2 3 6 6
16 16 14 12 11 10 11 10 11 12 11 13 12 12 13 13 13 12 12 12 12 12 12 12 12 12 10 9 8 6 5 4 4 3 2 1 4 6 7 5 4 7 5 6 6 6 6 5 5 3 5 2 4 3 2 5 5 6 4 3 2 2 2 2 2 2 2 2 3 3 3 3 3 3 3 5 4 5 4 1 1 0 2 2 2 3 4
13 12 11 13 13 13 13 12 12 12 13 14 13 13 12 12 12 12 12 12 12 12 12 13 13 12 12 11 10 9 8 7 5 3 2 4 5 5 4 3 2 2 6 7 6 7 6 5 3 4 5 2 4 5 1 3 6 5 4 1 1 1 2 2 2 2 2 1 1 1 3 1 2 2 3 4 3 3 4 6 3 0 1 2 3 1 3
12 13 14 14 13 14 13 13 12 13 12 12 13 13 13 12 12 12 12 12 12 11 12 13 13 11 12 11 11 10 10 9 8 7 6 6 6 5 5 5 2 6 4 4 6 8 7 5 4 3 4 4 3 6 3 1 5 4 4 2 2 2 1 2 2 1 2 2 2 4 3 5 2 4 3 3 4 3 4 4 6 4 3 3 2 2 2
13 13 13 13 13 13 13 12 13 12 12 12 12 12 12 12 12 12 12 12 12 12 13 12 12 11 12 12 11 11 10 10 9 9 9 7 7 6 5 6 4 7 6 3 5 8 8 4 3 3 6 2 5 5 2 4 4 5 3 1 0 1 3 1 2 2 2 1 4 3 4 2 3 3 4 3 4 4 4 5 6 6 5 6 6 3 3
14 14 14 14 13 13 13 13 12 12 12 12 12 12 11 11 11 12 12 12 11 12 12 12 12 11 11 11 11 10 11 11 11 10 10 9 9 8 5 7 7 7 11 11 11 8 5 4 3 3 3 4 6 5 4 2 5 4 2 5 2 2 1 1 2 3 1 1 2 4 3 1 2 2 3 2 3 3 4 4 4 5 2 3 3 5 6
15 15 14 13 12 13 13 13 12 13 13 12 12 11 11 11 11 11 12 12 11 11 12 11 11 10 11 11 11 11 10 10 11 10 10 10 10 9 6 2 8 10 13 8 7 6 5 3 4 3 7 7 5 5 1 3 3 6 4 1 2 1 3 2 1 3 2 1 2 3 2 2 3 3 4 3 3 3 4 4 3 5 5 5 4 5 4
15 13 13 13 13 12 12 12 12 12 12 12 12 11 11 10 10 11 12 11 11 10 11 12 12 11 11 11 11 9 9 9 9 9 9 8 8 8 8 4 8 9 10 6 6 5 5 6 4 8 12 11 8 5 1 4 5 6 2 1 3 3 3 2 1 2 1 1 1 2 2 2 2 3 4 2 4 2 2 3 3 3 3 4 3 3 4
14 13 13 12 13 12 12 11 12 12 11 11 11 11 10 10 10 11 11 11 10 9 10 10 11 10 10 9 9 9 8 8 8 8 8 7 6 7 6 12 10 7 7 6 4 4 2 3 10 14 10 10 8 5 2 4 4 7 5 2 1 2 2 2 3 4 3 1 2 1 2 2 1 3 2 2 3 0 2 2 3 3 3 3 3 3 3
14 14 13 13 13 12 11 12 11 11 12 12 11 11 10 9 10 10 10 11 10 9 9 9 10 10 10 9 9 8 9 8 8 8 8 8 5 4 8 9 8 7 8 6 3 2 6 10 11 10 10 10 8 4 2 4 6 6 3 2 4 2 2 3 2 4 4 2 2 1 1 1 1 3 1 2 0 0 3 1 2 2 3 3 3 3 2
13 13 14 13 12 11 12 11 11 12 13 11 11 10 10 10 9 9 10 11 10 10 9 8 10 10 9 9 8 7 7 10 11 9 6 5 9 10 9 11 12 12 9 5 2 3 8 8 8 10 10 8 6 2 3 4 5 7 8 5 1 1 4 6 5 6 7 5 2 4 2 4 2 4 1 3 2 1 2 1 1 2 2 2 3 3 3
13 13 13 13 13 12 11 11 11 11 13 11 10 9 9 10 9 9 10 10 10 10 10 8 8 10 10 9 8 8 7 6 2 7 7 7 8 9 9 8 10 10 9 8 9 9 13 9 8 8 8 7 5 2 3 5 6 7 4 4 6 0 4 4 4 3 3 2 1 2 2 2 2 3 2 1 1 0 2 1 0 2 2 1 2 2 2
12 12 12 12 12 12 11 11 11 9 9 10 9 9 9 9 10 9 9 9 10 10 10 10 9 9 9 9 8 7 7 7 7 4 4 6 6 7 8 11 14 13 9 6 7 6 9 11 9 8 7 5 3 4 5 5 6 7 9 4 4 2 2 3 2 4 4 4 4 3 3 3 2 2 1 2 1 0 2 1 0 2 2 0 2 2 1
13 12 12 11 11 11 11 10 10 9 10 12 13 11 11 10 9 9 9 8 8 8 9 9 9 8 8 8 8 8 8 8 7 8 5 5 6 6 9 9 9 10 9 7 8 8 9 13 11 10 8 5 4 4 4 5 6 9 6 2 2 1 0 1 2 1 1 2 2 2 3 4 4 3 0 1 1 1 0 0 0 4 5 1 4 1 0
12 11 11 10 10 9 10 10 10 10 10 9 8 8 10 10 9 8 10 10 9 8 8 9 9 8 8 9 10 10 9 8 8 5 4 2 2 5 12 9 10 9 7 6 4 6 6 6 6 8 8 6 6 5 5 6 6 8 3 1 0 1 2 3 4 3 3 3 2 3 3 2 2 2 0 1 1 1 2 2 1 1 3 3 1 1 1
11 11 10 11 10 10 9 10 10 10 9 7 8 8 9 9 9 9 9 8 10 10 9 9 9 10 9 9 7 6 7 7 5 6 8 6 2 2 9 10 7 7 6 6 5 4 8 9 8 10 9 7 6 6 6 8 9 8 5 1 1 2 3 3 3 3 2 2 2 2 2 3 4 3 3 2 2 3 2 1 1 1 2 1 1 2 0
Wind_Direction
230 249 218 198 194 207 203 216 201 193 213 235 241 182 217 156 252 129 175 144 135 140 133 134 133 132 132 133 129 132 133 129 131 131 127 122 115 110 104 98 92 83 71 65 62 54 51 50 47 46 47 43 38 34 34 29 21 19 17 14 20 14 18 18 13 6 14 17 13 11 11 13 12 9 8 6 5 2 4 5 3 2 359 357 359 358 355
232 274 257 218 199 191 197 215 226 196 196 230 258 223 107 104 113 126 131 115 117 119 119 117 120 115 117 121 127 132 135 135 134 127 122 119 115 102 92 87 81 72 68 67 61 55 51 49 46 42 43 41 36 34 30 29 19 19 7 28 29 16 18 15 13 10 11 15 13 14 12 14 14 12 11 9 8 7 7 6 4 4 3 4 5 4 359
252 258 252 209 203 196 196 206 216 209 189 102 91 88 95 104 111 118 119 116 107 89 87 95 95 104 112 121 133 135 134 133 127 123 118 112 107 98 96 95 85 75 67 62 61 58 52 48 46 40 37 40 37 38 33 29 21 358 10 37 22 25 17 14 11 10 12 12 12 16 13 14 17 16 14 12 11 10 9 7 7 5 5 5 7 5 4
244 241 23 335 285 217 163 57 31 31 57 94 92 104 112 113 123 124 119 117 128 128 116 106 111 121 127 130 131 131 130 128 125 120 116 111 105 99 94 87 82 75 65 60 60 58 53 48 46 43 38 41 39 38 37 27 12 4 43 35 30 26 18 13 13 13 15 12 13 15 13 15 17 15 13 15 13 9 8 7 8 7 8 8 5 4 2
189 141 52 353 96 90 70 30 28 39 70 75 74 73 96 122 135 133 148 149 130 132 130 125 128 125 121 120 120 122 126 122 122 117 111 109 100 89 91 86 79 73 66 62 61 59 61 55 48 45 46 47 41 36 36 27 357 17 43 35 31 27 19 15 12 16 19 15 14 16 17 15 15 14 14 14 13 10 10 8 7 10 9 8 6 4 3
195 122 115 270 235 160 104 356 323 39 62 59 77 60 69 64 55 82 108 125 129 132 133 127 129 121 117 113 108 111 115 118 114 112 105 104 99 91 87 84 78 70 67 64 57 52 68 69 67 78 114 101 76 40 44 38 8 33 40 36 32 27 21 19 20 20 22 17 17 19 17 17 16 16 15 15 13 12 8 9 10 11 12 11 8 7 6
135 50 134 183 192 77 283 308 32 102 85 75 80 78 74 84 90 94 105 122 131 133 125 124 117 101 89 83 85 86 98 111 113 110 111 105 100 98 95 90 84 84 79 69 53 42 37 37 24 2 8 4 21 79 63 77 50 37 40 38 33 28 25 25 23 22 22 20 18 18 17 16 18 19 18 17 17 12 12 10 10 11 9 7 9 5 5
68 109 188 187 113 310 298 75 91 105 100 96 77 65 58 71 91 111 117 129 128 124 121 116 113 106 95 78 59 58 65 81 104 112 105 102 95 98 110 106 125 102 67 53 55 48 34 36 36 23 8 17 23 25 7 28 46 47 41 37 33 28 26 25 26 24 22 20 17 17 16 15 16 14 16 22 21 13 15 16 13 12 16 17 8 6 5
128 124 88 48 133 142 112 142 138 137 140 171 130 105 63 95 115 121 122 123 123 122 122 121 119 116 104 90 72 49 75 88 99 108 112 113 119 103 71 57 62 64 66 61 56 55 48 41 45 40 36 32 36 23 25 40 38 45 46 37 32 27 23 24 27 25 23 20 16 14 13 16 16 16 14 12 15 13 16 18 14 14 15 18 14 9 8
139 125 112 113 129 177 172 159 161 144 84 86 105 103 103 102 110 116 121 127 131 129 129 131 133 134 98 86 101 117 126 125 118 101 91 85 80 94 106 85 67 62 67 72 64 58 59 56 50 53 45 34 33 35 32 35 44 48 45 40 34 30 22 21 25 26 26 23 19 14 11 13 10 15 18 15 9 8 18 20 14 13 14 14 17 19 14
148 154 143 140 155 360 118 154 165 129 118 126 126 101 117 156 136 140 136 135 137 139 142 147 159 153 114 127 139 146 135 124 116 115 111 101 104 103 97 96 93 83 74 72 76 74 69 68 63 61 60 47 42 43 37 32 31 48 50 45 41 33 27 24 26 28 27 30 27 24 23 18 11 6 7 12 10 12 18 20 20 14 11 10 13 15 15
155 140 134 94 50 45 133 147 153 135 146 170 216 224 181 169 157 152 150 144 146 146 150 157 180 169 141 152 150 148 144 135 130 125 124 124 119 105 95 87 87 95 94 91 86 80 74 72 71 68 63 62 57 46 43 36 28 31 41 50 46 46 37 31 35 31 26 32 34 25 31 35 25 15 6 5 4 21 21 19 18 19 13 9 12 12 12
145 116 77 108 88 61 104 144 161 160 163 176 215 204 120 153 151 152 151 146 148 146 151 178 158 61 99 123 135 140 137 135 132 128 121 118 114 111 106 102 107 93 87 81 84 86 79 68 61 59 65 71 65 61 51 42 33 24 25 33 37 38 34 32 35 34 25 21 19 18 21 30 26 12 7 12 7 10 19 18 22 20 18 16 15 14 12
178 135 114 94 108 360 313 129 64 67 197 210 163 77 127 135 140 146 148 145 145 150 148 97 97 108 112 123 130 134 133 130 124 123 123 119 109 99 103 104 94 95 96 100 88 72 68 74 77 69 60 64 64 65 59 51 41 32 26 29 31 29 31 35 43 42 32 23 19 23 27 39 33 21 13 11 9 11 17 17 13 12 13 18 20 21 16
62 81 108 145 131 181 292 110 100 17 286 78 107 117 120 133 133 142 137 139 141 122 107 108 114 117 121 127 130 130 130 130 127 126 130 129 125 124 120 115 105 104 104 87 74 75 72 65 59 60 62 67 68 71 68 67 61 48 36 29 33 34 30 31 38 46 45 37 35 30 29 43 41 27 21 19 17 13 16 20 16 14 9 8 14 14 16
129 133 117 56 67 124 173 205 113 57 88 122 123 126 122 130 132 131 133 121 119 120 119 121 120 122 125 127 130 131 132 129 131 136 129 121 125 127 112 109 117 107 89 93 98 78 68 62 64 63 56 60 59 60 62 70 75 64 53 38 33 37 37 34 34 37 33 33 28 28 41 45 46 35 24 21 22 19 18 20 20 16 11 9 10 12 10
26 68 96 98 85 92 82 84 95 103 110 118 123 120 123 129 128 121 119 124 122 121 124 124 128 127 126 130 134 131 129 132 131 128 121 113 111 117 130 114 98 100 102 90 85 84 78 74 63 61 57 61 56 63 64 61 56 55 56 49 35 40 44 41 36 38 42 46 33 15 18 33 45 38 28 22 22 19 19 23 22 18 14 9 10 12 10
96 68 65 95 97 100 94 86 97 104 111 115 127 127 124 121 126 127 124 125 125 126 129 126 126 128 132 130 129 129 130 129 124 121 123 128 130 112 101 99 102 99 90 83 78 77 83 81 71 63 68 67 67 68 79 73 63 55 53 59 51 39 41 44 41 39 43 51 46 30 28 27 37 48 36 25 25 18 18 19 19 18 13 10 9 12 14
107 89 106 97 105 109 104 104 102 102 107 108 111 121 124 129 132 128 128 125 126 129 130 127 128 131 133 129 130 129 128 130 132 129 126 130 129 130 117 113 114 103 101 96 88 80 74 68 67 60 57 51 60 76 65 66 70 70 61 67 65 48 47 38 40 47 66 63 59 49 35 36 33 36 44 42 26 26 22 17 17 17 14 11 8 9 15
98 129 123 114 108 105 110 114 117 117 117 116 119 124 128 130 128 124 126 128 128 131 129 131 131 131 132 131 131 132 133 132 133 135 133 124 120 115 107 96 90 102 98 93 103 105 89 77 68 67 57 39 36 61 68 70 86 89 88 80 68 60 46 45 35 35 52 114 97 64 64 44 35 32 30 54 51 26 21 13 9 13 17 12 10 10 15
103 107 117 122 114 107 109 109 109 116 119 118 120 127 125 125 125 126 127 130 130 131 131 132 131 130 133 134 137 134 135 134 133 131 125 124 122 117 116 122 120 95 91 93 85 78 78 78 81 71 66 54 44 37 32 43 36 55 91 82 81 71 55 39 48 46 44 31 62 115 95 79 65 40 19 13 55 64 30 21 12 359 7 16 13 19 28
136 147 145 139 132 132 117 113 120 123 121 122 121 126 126 128 130 130 127 123 124 128 131 134 134 133 136 140 138 131 129 130 127 127 125 124 117 116 111 103 102 102 101 108 97 82 75 77 69 71 79 70 57 68 78 60 30 12 11 46 64 70 64 43 30 47 39 44 45 43 83 123 111 81 62 54 35 58 75 24 18 15 2 13 353 23 33
151 144 149 133 116 118 118 119 121 122 123 128 129 130 131 131 130 131 129 129 131 133 133 132 132 130 133 134 131 126 125 127 131 128 128 128 133 139 139 134 133 137 139 106 76 63 41 47 88 96 90 64 62 64 56 73 86 47 27 15 25 35 50 61 45 31 44 44 44 50 46 47 116 143 130 64 52 49 40 357 343 336 343 326 344 25 32
126 144 133 125 131 128 128 124 127 129 132 129 127 127 127 128 130 132 131 133 135 137 138 138 141 140 138 135 129 126 130 135 137 134 130 132 136 121 100 99 90 70 74 78 88 94 84 55 42 8 34 86 111 91 54 52 70 88 55 35 31 19 19 38 38 32 43 34 32 29 34 51 38 38 69 131 165 303 324 321 303 308 308 320 322 4 37
134 135 131 129 123 121 119 125 129 130 131 129 127 130 131 131 132 135 135 134 134 135 136 136 134 133 129 128 131 136 139 139 139 134 126 106 92 99 113 119 117 106 92 89 93 94 98 93 78 52 38 5 359 53 111 114 89 90 85 60 66 41 8 17 38 57 49 47 30 21 34 35 36 46 32 16 21 102 220 253 286 291 289 297 303 334 16
115 117 118 121 123 120 123 129 129 131 130 130 129 129 133 132 133 133 131 132 131 133 131 133 132 132 135 138 142 139 135 135 123 106 105 111 126 138 119 97 91 92 96 92 90 93 86 79 78 74 57 23 15 339 354 68 52 69 111 92 50 60 34 11 47 43 45 37 31 33 32 32 49 43 36 19 22 17 27 44 206 253 261 262 272 273 334
106 113 123 124 125 131 140 137 134 135 132 133 133 130 131 132 133 130 130 131 132 131 131 132 133 135 139 139 139 138 128 112 105 111 114 121 119 103 103 114 108 99 95 90 82 84 113 97 87 80 71 75 11 7 350 39 57 41 43 58 88 151 269 301 45 51 60 38 32 30 9 42 46 36 39 33 12 28 40 22 9 20 38 26 232 252 37
125 133 139 137 139 141 135 132 133 133 134 135 133 133 133 134 132 132 130 130 131 130 131 134 138 140 135 143 135 107 109 130 125 125 123 116 112 115 111 117 126 128 127 135 133 135 99 90 86 74 76 74 67 40 355 20 102 75 84 62 52 19 0 351 359 31 64 51 40 28 5 56 50 37 34 31 18 31 40 29 16 23 46 27 9 17 19
134 138 134 130 132 132 131 131 134 134 132 133 133 132 135 133 133 132 133 133 136 138 142 145 143 142 138 130 131 142 147 126 123 123 119 118 119 119 123 118 118 125 121 114 101 93 95 97 94 85 68 60 81 45 318 320 78 101 85 64 42 39 30 351 345 316 51 73 61 7 357 43 59 47 23 28 20 31 35 32 15 20 38 39 16 22 19
131 130 130 130 132 135 135 136 134 132 134 136 136 136 136 138 136 139 139 139 140 142 144 141 142 138 132 141 152 166 147 124 128 121 124 126 123 130 128 127 122 119 122 106 100 97 91 83 80 78 75 68 81 178 264 264 250 99 91 85 70 75 8 322 324 305 48 48 36 348 14 357 59 52 30 21 25 23 30 35 20 360 29 47 33 16 12
131 132 132 135 136 137 135 132 134 134 136 139 137 137 139 141 140 141 144 145 145 142 148 154 147 139 153 164 153 129 123 125 125 129 131 139 141 123 130 154 142 124 103 98 97 96 90 82 78 74 73 71 62 347 331 333 64 102 122 113 141 154 155 304 270 317 44 45 58 345 45 355 43 65 50 19 7 26 20 43 18 4 24 56 41 27 15
134 135 137 139 138 136 135 136 136 139 139 141 143 145 150 151 150 148 147 152 152 154 141 125 129 153 151 128 119 125 131 134 137 137 136 113 82 56 353 82 94 98 104 103 93 84 81 83 79 71 69 60 64 19 9 338 345 41 100 158 174 176 94 291 308 38 358 40 98 347 49 37 359 42 58 10 13 26 26 41 26 2 2 45 61 50 10
137 139 139 139 138 139 140 142 143 144 149 153 157 154 147 145 146 150 153 137 127 131 132 146 157 147 132 132 137 137 131 135 136 127 110 92 55 3 347 115 117 109 103 101 95 88 81 87 78 60 66 61 36 34 359 349 1 12 16 22 356 67 33 150 263 359 22 39 7 28 60 48 15 10 13 356 22 14 44 9 32 21 353 24 91 75 1
144 140 144 145 146 147 145 146 152 153 157 155 149 143 143 146 148 141 132 140 146 145 154 150 143 134 131 114 107 109 117 114 100 94 107 112 63 12 346 112 117 122 128 142 123 105 99 87 96 91 69 57 61 26 359 0 3 49 331 25 12 4 42 28 287 25 359 34 4 50 51 15 41 49 315 327 352 358 80 26 27 42 7 355 48 119 248
139 140 141 143 142 146 155 158 161 163 154 145 144 143 147 149 149 137 139 149 149 148 141 134 120 105 101 96 90 86 95 110 121 126 133 133 105 342 308 129 121 137 156 122 112 110 78 54 41 26 51 74 54 49 20 1 340 324 2 348 58 2 26 29 12 23 26 25 13 16 23 19 316 320 11 320 12 339 52 55 64 39 5 348 352 64 170
140 141 146 160 165 173 172 169 148 154 147 146 148 148 149 144 138 136 152 153 144 138 127 116 114 111 102 91 99 110 116 123 129 132 135 155 264 274 282 174 155 158 145 135 119 117 114 94 62 22 332 23 68 46 44 4 334 338 352 340 27 20 2 57 26 5 51 32 4 334 30 21 329 343 15 333 46 359 13 18 39 37 24 359 339 348 5
154 160 171 179 181 171 151 137 127 151 138 125 128 134 141 142 142 154 152 142 138 129 125 127 127 124 119 105 105 116 125 132 135 142 150 174 234 244 246 258 213 167 165 158 150 142 126 116 157 274 273 176 87 47 42 29 349 341 310 2 30 59 359 31 53 22 22 54 354 336 38 31 6 10 15 334 33 49 62 20 16 353 356 10 1 358 348
169 169 162 149 136 121 121 136 133 141 143 140 147 146 142 144 152 152 145 139 135 131 136 137 136 134 125 116 120 127 130 124 125 134 147 196 221 232 237 234 177 160 176 152 148 147 122 153 194 226 248 223 106 93 17 335 320 314 287 70 360 37 10 16 29 51 17 40 31 339 41 50 22 10 14 330 14 332 73 27 95 314 347 3 56 32 298
151 143 138 142 140 146 148 149 151 146 150 149 145 140 146 152 151 143 142 139 135 138 139 137 136 138 138 142 144 146 147 151 150 160 186 211 238 248 238 207 259 150 105 134 151 121 147 160 228 221 235 128 145 120 108 270 300 302 303 99 33 26 29 2 7 34 31 11 108 341 14 356 95 44 11 340 6 359 26 355 316 253 88 63 30 30 23
144 147 147 149 147 150 153 152 146 149 150 145 143 147 153 156 152 144 141 137 139 144 140 141 144 147 152 155 156 160 167 167 173 177 191 205 228 247 255 252 186 100 66 90 135 133 150 163 220 244 241 127 114 126 150 256 279 286 277 33 330 3 58 12 339 16 16 337 295 149 71 334 337 87 5 359 4 355 42 356 340 4 7 45 69 64 36
147 151 153 153 148 151 148 145 148 147 144 145 149 150 156 158 147 144 142 141 148 149 145 152 155 157 163 164 167 165 172 170 179 181 190 191 214 217 226 231 182 132 152 156 112 125 151 166 239 263 294 163 127 96 117 234 243 276 269 94 166 24 334 42 316 326 15 337 320 313 103 61 311 79 28 19 16 348 37 7 341 326 38 17 356 16 56
155 156 156 150 152 151 150 148 149 146 148 149 146 150 156 149 148 146 143 148 155 157 153 162 163 165 167 169 171 170 174 179 184 190 192 205 208 216 207 229 177 146 115 115 128 142 152 176 241 243 279 78 92 74 43 302 275 282 227 169 119 4 303 285 6 315 325 18 356 321 64 349 327 48 84 25 33 347 40 4 335 331 30 46 359 18 1
160 160 158 153 156 151 153 152 153 150 149 145 150 158 152 151 148 147 147 157 165 162 163 164 159 167 170 176 175 175 177 180 188 194 198 213 220 231 247 313 123 133 143 154 159 170 178 198 197 206 108 111 118 124 203 277 272 266 269 17 107 155 233 124 31 288 298 5 26 318 54 335 342 315 95 82 59 351 47 2 351 337 19 18 1 34 349
160 158 155 159 156 154 153 157 153 153 150 152 158 159 153 154 153 154 154 164 172 172 172 167 168 177 183 183 179 178 180 181 191 195 201 205 218 228 240 195 140 147 164 156 177 204 187 188 197 130 125 123 130 146 203 279 282 284 284 188 113 189 256 114 173 283 8 360 329 314 29 340 20 330 73 68 69 4 58 18 337 338 25 5 7 33 356
162 160 159 160 154 154 157 160 155 156 150 155 159 159 160 160 159 159 161 168 177 173 181 164 172 179 188 189 184 182 184 179 196 189 201 205 209 213 157 120 140 158 179 194 190 201 229 134 134 136 136 134 140 154 225 256 271 279 277 188 243 310 12 30 269 220 172 242 248 282 58 12 10 306 90 72 108 39 78 25 330 340 30 9 351 27 8
163 160 159 158 158 163 161 159 156 154 152 159 161 162 165 166 166 162 168 173 180 178 192 171 176 185 193 193 188 187 188 184 196 203 207 217 218 194 144 142 139 143 170 194 235 163 116 135 132 132 139 150 148 155 230 250 271 275 296 258 204 213 225 190 253 3 35 347 252 216 93 335 275 274 83 72 66 195 106 110 274 3 30 8 342 13 1
164 162 163 164 165 167 162 158 161 159 155 165 166 167 173 175 175 170 173 174 179 180 195 181 178 187 199 204 188 189 205 204 188 203 198 122 103 98 117 127 133 148 167 184 220 133 136 151 155 159 154 148 139 179 222 259 257 266 262 283 360 180 191 236 232 223 198 210 133 107 200 230 260 295 236 167 155 83 95 78 15 45 29 2 334 7 1
167 164 165 166 170 168 170 163 173 179 166 171 172 166 176 177 182 181 177 175 179 180 194 198 189 185 197 202 200 202 214 243 220 199 187 153 138 132 135 147 150 160 139 97 99 119 137 151 158 155 139 138 159 197 236 255 271 276 278 235 216 344 356 344 345 338 321 310 199 221 222 243 197 229 278 54 85 146 108 92 312 88 82 11 336 349 348
168 164 164 167 173 171 170 163 180 188 176 169 179 171 177 183 187 189 184 183 184 182 190 198 200 194 192 201 205 206 215 223 251 264 176 194 152 163 151 147 154 154 156 165 146 144 154 151 159 155 155 170 176 208 241 250 255 270 275 288 56 47 334 329 360 14 10 9 2 352 340 319 287 263 304 59 48 344 97 98 72 91 84 352 296 312 6
168 165 168 175 176 178 177 174 174 186 202 182 185 180 166 180 192 197 194 191 192 188 191 193 200 201 197 194 201 215 210 226 227 231 212 185 181 164 139 140 152 171 176 187 172 158 169 166 162 163 166 180 202 231 256 266 270 265 267 47 48 297 159 112 97 118 282 288 284 297 297 292 296 290 252 239 255 311 23 182 136 138 156 191 241 243 60
172 171 173 175 176 181 188 196 178 174 209 200 193 177 165 176 187 199 201 189 195 199 203 194 197 200 200 203 197 202 212 207 220 260 288 189 176 125 142 160 158 177 181 191 189 160 157 174 177 172 180 193 192 214 234 254 265 275 265 108 37 309 251 188 223 237 239 234 244 250 255 295 305 316 270 231 217 173 179 182 195 200 198 216 189 86 74
171 171 173 180 180 179 184 209 197 177 218 215 195 187 184 188 193 193 197 187 206 199 206 222 205 191 209 216 210 202 201 207 217 204 232 238 176 138 140 142 147 170 169 188 210 197 170 186 171 180 187 189 203 212 225 250 260 278 292 334 245 263 259 279 300 301 280 238 219 233 258 255 250 246 252 238 219 220 215 190 225 238 223 220 144 121 105